Time,TemperatureF,DewpointF,PressureIn,WindDirection,WindDirectionDegrees,WindSpeedMPH,WindSpeedGustMPH,Humidity,HourlyPrecipIn,Conditions,Clouds,dailyrainin,SoftwareType,DateUTC
2013-04-05 00:12:00,46.0,39.0,31.61,SSE,151,1.0,7.0,77,0.00,,,0.00,weatherlink.com 1.10,2013-04-05 06:12:00,
2013-04-05 00:27:00,45.6,39.0,31.61,SE,126,2.0,5.0,78,0.00,,,0.00,weatherlink.com 1.10,2013-04-05 06:27:00,
2013-04-05 00:43:00,44.9,39.0,31.60,SE,132,5.0,7.0,81,0.00,,,0.00,weatherlink.com 1.10,2013-04-05 06:43:00,
2013-04-05 00:58:00,45.1,39.0,31.60,ESE,121,2.0,9.0,79,0.00,,,0.00,weatherlink.com 1.10,2013-04-05 06:58:00,
2013-04-05 01:13:00,45.5,39.0,31.60,ESE,121,3.0,10.0,77,0.00,,,0.00,weatherlink.com 1.10,2013-04-05 07:13:00,
2013-04-05 01:28:00,45.5,39.0,31.60,SSE,159,9.0,12.0,78,0.00,,,0.00,weatherlink.com 1.10,2013-04-05 07:28:00,
2013-04-05 01:43:00,44.9,39.0,31.60,SSE,164,5.0,10.0,80,0.00,,,0.00,weatherlink.com 1.10,2013-04-05 07:43:00,
2013-04-05 01:58:00,44.9,39.0,31.60,SE,134,0.0,6.0,79,0.00,,,0.00,weatherlink.com 1.10,2013-04-05 07:58:00,
2013-04-05 02:13:00,45.6,38.0,31.60,SE,143,0.0,7.0,76,0.00,,,0.00,weatherlink.com 1.10,2013-04-05 08:13:00,
2013-04-05 02:28:00,45.2,39.0,31.63,NNW,333,15.0,24.0,80,0.00,,,0.00,weatherlink.com 1.10,2013-04-05 08:28:00,
2013-04-05 02:43:00,44.7,38.0,31.63,WNW,294,20.0,29.0,76,0.00,,,0.00,weatherlink.com 1.10,2013-04-05 08:43:00,
2013-04-05 02:58:00,44.3,36.0,31.64,WNW,285,27.0,37.0,73,0.00,,,0.00,weatherlink.com 1.10,2013-04-05 08:58:00,
2013-04-05 03:13:00,43.9,35.0,31.65,NW,307,23.0,43.0,70,0.00,,,0.00,weatherlink.com 1.10,2013-04-05 09:13:00,
2013-04-05 03:28:00,42.5,35.0,31.67,WNW,296,28.0,35.0,75,0.00,,,0.00,weatherlink.com 1.10,2013-04-05 09:28:00,
2013-04-05 03:43:00,42.2,34.0,31.67,West,273,9.0,33.0,73,0.00,,,0.00,weatherlink.com 1.10,2013-04-05 09:43:00,
2013-04-05 03:58:00,42.6,33.0,31.68,WNW,283,8.0,29.0,69,0.00,,,0.00,weatherlink.com 1.10,2013-04-05 09:58:00,
2013-04-05 04:13:00,41.6,34.0,31.69,NW,323,17.0,25.0,73,0.00,,,0.00,weatherlink.com 1.10,2013-04-05 10:13:00,
2013-04-05 04:28:00,41.7,33.0,31.67,NW,315,11.0,24.0,72,0.00,,,0.00,weatherlink.com 1.10,2013-04-05 10:28:00,
2013-04-05 04:43:00,41.8,33.0,31.67,WNW,288,10.0,14.0,70,0.00,,,0.00,weatherlink.com 1.10,2013-04-05 10:43:00,
2013-04-05 04:58:00,42.3,33.0,31.68,NW,304,12.0,20.0,69,0.00,,,0.00,weatherlink.com 1.10,2013-04-05 10:58:00,
2013-04-05 05:28:00,40.8,33.0,31.69,SW,231,1.0,4.0,74,0.00,,,0.00,weatherlink.com 1.10,2013-04-05 11:28:00,
2013-04-05 05:43:00,40.7,34.0,31.69,SW,229,0.0,2.0,76,0.00,,,0.00,weatherlink.com 1.10,2013-04-05 11:43:00,
2013-04-05 05:58:00,40.1,34.0,31.69,SE,128,6.0,9.0,78,0.00,,,0.00,weatherlink.com 1.10,2013-04-05 11:58:00,
2013-04-05 06:13:00,39.7,34.0,31.69,East,94,0.0,9.0,79,0.00,,,0.00,weatherlink.com 1.10,2013-04-05 12:13:00,
2013-04-05 06:28:00,39.9,34.0,31.69,East,92,0.0,7.0,78,0.00,,,0.00,weatherlink.com 1.10,2013-04-05 12:28:00,
2013-04-05 06:43:00,39.8,34.0,31.69,ESE,122,3.0,15.0,79,0.00,,,0.00,weatherlink.com 1.10,2013-04-05 12:43:00,
2013-04-05 06:58:00,39.6,34.0,31.69,SE,128,4.0,12.0,79,0.00,,,0.00,weatherlink.com 1.10,2013-04-05 12:58:00,
2013-04-05 07:13:00,39.1,34.0,31.69,ESE,122,4.0,10.0,81,0.00,,,0.00,weatherlink.com 1.10,2013-04-05 13:13:00,
2013-04-05 07:28:00,39.1,34.0,31.70,ESE,111,5.0,8.0,81,0.00,,,0.00,weatherlink.com 1.10,2013-04-05 13:28:00,
2013-04-05 08:13:00,-999.0,-99.9,31.70,North,-999,-999.0,-999.0,-999,0.00,,,0.00,weatherlink.com 1.10,2013-04-05 14:13:00,
2013-04-05 08:29:00,-999.0,-99.9,31.70,North,-999,-999.0,-999.0,-999,0.00,,,0.00,weatherlink.com 1.10,2013-04-05 14:29:00,
2013-04-05 08:59:00,-999.0,-99.9,31.69,North,-999,-999.0,-999.0,-999,0.00,,,0.00,weatherlink.com 1.10,2013-04-05 14:59:00,
2013-04-05 09:14:00,-999.0,-99.9,31.69,North,-999,-999.0,-999.0,-999,0.00,,,0.00,weatherlink.com 1.10,2013-04-05 15:14:00,
2013-04-05 09:29:00,-999.0,-99.9,31.69,North,-999,-999.0,-999.0,-999,0.00,,,0.00,weatherlink.com 1.10,2013-04-05 15:29:00,
2013-04-05 09:44:00,-999.0,-99.9,31.69,North,-999,-999.0,-999.0,-999,0.00,,,0.00,weatherlink.com 1.10,2013-04-05 15:44:00,
2013-04-05 09:59:00,41.0,35.0,31.70,SE,125,6.0,10.0,79,0.00,,,0.00,weatherlink.com 1.10,2013-04-05 15:59:00,
2013-04-05 10:14:00,40.9,35.0,31.70,SE,145,7.0,10.0,79,0.00,,,0.00,weatherlink.com 1.10,2013-04-05 16:14:00,
2013-04-05 10:29:00,40.7,36.0,31.70,SSE,147,7.0,10.0,82,0.00,,,0.00,weatherlink.com 1.10,2013-04-05 16:29:00,
2013-04-05 10:44:00,41.2,36.0,31.71,SSE,147,3.0,8.0,80,0.00,,,0.00,weatherlink.com 1.10,2013-04-05 16:44:00,
2013-04-05 10:59:00,41.5,36.0,31.71,ESE,115,2.0,7.0,81,0.00,,,0.00,weatherlink.com 1.10,2013-04-05 16:59:00,
2013-04-05 11:14:00,43.3,37.0,31.71,South,169,3.0,11.0,77,0.00,,,0.00,weatherlink.com 1.10,2013-04-05 17:14:00,
2013-04-05 11:29:00,43.7,37.0,31.71,SSE,153,5.0,10.0,78,0.00,,,0.00,weatherlink.com 1.10,2013-04-05 17:29:00,
2013-04-05 11:44:00,46.9,38.0,31.70,SSW,204,8.0,11.0,72,0.00,,,0.00,weatherlink.com 1.10,2013-04-05 17:44:00,
2013-04-05 11:59:00,47.0,34.0,31.71,SW,224,5.0,12.0,62,0.00,,,0.00,weatherlink.com 1.10,2013-04-05 17:59:00,
2013-04-05 12:14:00,44.8,34.0,31.70,SSW,192,9.0,17.0,67,0.00,,,0.00,weatherlink.com 1.10,2013-04-05 18:14:00,
2013-04-05 12:29:00,44.8,36.0,31.70,SSW,192,12.0,14.0,71,0.00,,,0.00,weatherlink.com 1.10,2013-04-05 18:29:00,
2013-04-05 12:44:00,46.9,39.0,31.69,SSW,192,6.0,15.0,74,0.00,,,0.00,weatherlink.com 1.10,2013-04-05 18:44:00,
2013-04-05 12:59:00,47.3,35.0,31.69,SE,146,12.0,17.0,63,0.00,,,0.00,weatherlink.com 1.10,2013-04-05 18:59:00,
2013-04-05 13:14:00,46.5,33.0,31.69,SSW,205,8.0,16.0,60,0.00,,,0.00,weatherlink.com 1.10,2013-04-05 19:14:00,
2013-04-05 13:29:00,46.5,34.0,31.68,SE,142,14.0,15.0,62,0.00,,,0.00,weatherlink.com 1.10,2013-04-05 19:29:00,
2013-04-05 13:44:00,47.0,32.0,31.68,South,184,10.0,14.0,56,0.00,,,0.00,weatherlink.com 1.10,2013-04-05 19:44:00,
2013-04-05 13:59:00,47.5,31.0,31.68,South,186,4.0,16.0,53,0.00,,,0.00,weatherlink.com 1.10,2013-04-05 19:59:00,
2013-04-05 14:14:00,48.4,32.0,31.68,SSW,212,4.0,17.0,53,0.00,,,0.00,weatherlink.com 1.10,2013-04-05 20:14:00,
2013-04-05 14:29:00,47.4,31.0,31.68,SSW,197,12.0,13.0,54,0.00,,,0.00,weatherlink.com 1.10,2013-04-05 20:29:00,
2013-04-05 14:44:00,49.1,33.0,31.69,SSW,210,11.0,20.0,54,0.00,,,0.00,weatherlink.com 1.10,2013-04-05 20:44:00,
2013-04-05 14:59:00,48.7,33.0,31.68,SSE,167,11.0,17.0,54,0.00,,,0.00,weatherlink.com 1.10,2013-04-05 20:59:00,
2013-04-05 15:14:00,48.6,31.0,31.70,SW,225,15.0,21.0,51,0.00,,,0.00,weatherlink.com 1.10,2013-04-05 21:14:00,
2013-04-05 15:29:00,44.9,33.0,31.70,SW,216,8.0,28.0,64,0.00,,,0.00,weatherlink.com 1.10,2013-04-05 21:29:00,
2013-04-05 15:44:00,44.5,32.0,31.71,NW,322,15.0,18.0,63,0.00,,,0.00,weatherlink.com 1.10,2013-04-05 21:44:00,
2013-04-05 15:59:00,44.6,31.0,31.71,WNW,299,18.0,23.0,59,0.00,,,0.00,weatherlink.com 1.10,2013-04-05 21:59:00,
2013-04-05 16:14:00,45.0,31.0,31.71,NW,304,7.0,21.0,59,0.00,,,0.00,weatherlink.com 1.10,2013-04-05 22:14:00,
2013-04-05 16:29:00,45.8,32.0,31.71,West,277,9.0,11.0,58,0.00,,,0.00,weatherlink.com 1.10,2013-04-05 22:29:00,
2013-04-05 16:44:00,46.4,31.0,31.72,West,267,3.0,11.0,56,0.00,,,0.00,weatherlink.com 1.10,2013-04-05 22:44:00,
2013-04-05 16:59:00,46.5,31.0,31.72,West,281,14.0,21.0,55,0.00,,,0.00,weatherlink.com 1.10,2013-04-05 22:59:00,
2013-04-05 17:14:00,45.5,32.0,31.73,NW,306,14.0,27.0,59,0.00,,,0.00,weatherlink.com 1.10,2013-04-05 23:14:00,
2013-04-05 17:29:00,46.0,30.0,31.74,WNW,282,18.0,25.0,53,0.00,,,0.00,weatherlink.com 1.10,2013-04-05 23:29:00,
2013-04-05 17:45:00,-999.0,-99.9,31.74,North,-999,-999.0,-999.0,-999,0.00,,,0.00,weatherlink.com 1.10,2013-04-05 23:45:00,
2013-04-05 18:00:00,-999.0,-99.9,31.74,North,-999,-999.0,-999.0,-999,0.00,,,0.00,weatherlink.com 1.10,2013-04-06 00:00:00,
2013-04-05 18:15:00,-999.0,-99.9,31.74,North,-999,-999.0,-999.0,-999,0.00,,,0.00,weatherlink.com 1.10,2013-04-06 00:15:00,
2013-04-05 18:30:00,-999.0,-99.9,31.74,North,-999,-999.0,-999.0,-999,0.00,,,0.00,weatherlink.com 1.10,2013-04-06 00:30:00,
2013-04-05 18:45:00,-999.0,-99.9,31.76,North,-999,-999.0,-999.0,-999,0.00,,,0.00,weatherlink.com 1.10,2013-04-06 00:45:00,
2013-04-05 19:00:00,-999.0,-99.9,31.76,North,-999,-999.0,-999.0,-999,0.00,,,0.00,weatherlink.com 1.10,2013-04-06 01:00:00,
2013-04-05 19:15:00,-999.0,-99.9,31.75,North,-999,-999.0,-999.0,-999,0.00,,,0.00,weatherlink.com 1.10,2013-04-06 01:15:00,
2013-04-05 20:00:00,42.8,32.0,31.78,SW,227,7.0,9.0,66,0.00,,,0.00,weatherlink.com 1.10,2013-04-06 02:00:00,
2013-04-05 20:15:00,42.3,32.0,31.77,WNW,287,9.0,13.0,67,0.00,,,0.00,weatherlink.com 1.10,2013-04-06 02:15:00,
2013-04-05 20:30:00,42.1,32.0,31.78,WNW,287,4.0,24.0,67,0.00,,,0.00,weatherlink.com 1.10,2013-04-06 02:30:00,
2013-04-05 20:45:00,41.9,32.0,31.79,West,279,13.0,22.0,69,0.00,,,0.00,weatherlink.com 1.10,2013-04-06 02:45:00,
2013-04-05 21:00:00,42.1,32.0,31.80,WNW,284,10.0,21.0,67,0.00,,,0.00,weatherlink.com 1.10,2013-04-06 03:00:00,
2013-04-05 21:15:00,41.6,34.0,31.81,SW,229,6.0,12.0,73,0.00,,,0.00,weatherlink.com 1.10,2013-04-06 03:15:00,
2013-04-05 21:30:00,41.1,34.0,31.81,SW,218,3.0,8.0,77,0.00,,,0.00,weatherlink.com 1.10,2013-04-06 03:30:00,
2013-04-05 21:45:00,39.9,34.0,31.82,SW,224,0.0,5.0,79,0.00,,,0.00,weatherlink.com 1.10,2013-04-06 03:45:00,
2013-04-05 22:00:00,39.6,34.0,31.82,SW,236,1.0,4.0,79,0.00,,,0.00,weatherlink.com 1.10,2013-04-06 04:00:00,
2013-04-05 22:15:00,39.3,34.0,31.82,SW,235,0.0,2.0,80,0.00,,,0.00,weatherlink.com 1.10,2013-04-06 04:15:00,
2013-04-05 22:30:00,39.2,34.0,31.81,East,92,3.0,5.0,80,0.00,,,0.00,weatherlink.com 1.10,2013-04-06 04:30:00,
2013-04-05 22:45:00,39.6,33.0,31.81,East,101,6.0,8.0,78,0.00,,,0.00,weatherlink.com 1.10,2013-04-06 04:45:00,
2013-04-05 23:00:00,39.5,34.0,31.81,ESE,108,7.0,11.0,82,0.00,,,0.00,weatherlink.com 1.10,2013-04-06 05:00:00,
2013-04-05 23:15:00,39.7,35.0,31.82,East,101,6.0,11.0,82,0.00,,,0.00,weatherlink.com 1.10,2013-04-06 05:15:00,
2013-04-05 23:30:00,39.4,35.0,31.82,ESE,115,8.0,14.0,83,0.00,,,0.00,weatherlink.com 1.10,2013-04-06 05:30:00,
2013-04-05 23:45:00,39.4,34.0,31.82,SE,126,10.0,12.0,82,0.00,,,0.00,weatherlink.com 1.10,2013-04-06 05:45:00,